Temp
53 54 54 54 55 55 55 56 56 56 56 56 56 56 56 56 55 55 55 56 56 56 56 56 57 58 58 58 58 58 59 59 59 60 60 61 61 61 61 62 63 62 64 65 65 66 65 65 63 62 61 55
50 52 53 53 53 53 54 54 55 55 55 55 55 55 54 54 54 54 55 55 55 55 55 54 55 57 58 58 57 57 58 58 59 59 59 59 59 59 59 59 60 61 61 61 65 63 64 64 63 61 61 55
45 50 51 51 52 52 52 53 53 53 53 53 52 53 53 53 52 52 53 53 54 55 54 53 53 55 57 56 56 56 56 57 58 58 58 58 58 57 57 57 57 58 59 59 58 62 64 63 61 61 59 55
42 46 50 49 50 50 51 51 51 51 51 50 50 51 51 51 50 50 49 52 51 53 53 52 52 54 55 56 56 56 55 56 56 57 57 56 56 55 56 55 54 55 56 57 57 57 59 61 61 59 55 54
42 44 48 45 47 48 49 49 49 49 48 48 47 48 49 49 48 47 47 48 48 50 49 51 52 53 55 55 54 54 53 54 55 55 55 55 54 54 52 52 51 52 54 54 55 55 55 60 59 56 55 54
42 42 46 44 43 43 45 45 46 44 44 45 43 46 46 46 47 46 46 47 48 47 48 48 50 51 53 54 54 55 53 53 54 54 54 54 53 52 50 49 46 47 49 52 52 52 53 53 54 54 54 53
41 42 43 43 43 43 46 44 44 42 42 42 42 43 44 46 45 45 45 46 46 46 48 47 49 50 51 52 53 53 52 52 52 53 53 53 52 50 49 43 43 44 45 46 49 49 49 49 51 52 53 53
40 40 41 41 42 43 43 43 43 43 42 41 41 42 43 44 44 44 44 45 46 45 44 45 47 48 48 48 49 50 49 50 50 51 50 50 50 46 44 42 42 43 44 44 45 45 46 47 50 51 51 52
38 40 38 39 40 40 41 41 42 43 42 42 41 41 42 42 42 42 42 42 42 42 42 42 43 43 44 45 45 48 46 47 46 46 44 43 44 43 43 42 42 42 42 43 43 43 44 45 49 50 50 46
40 40 36 37 39 39 39 39 40 41 42 42 41 41 40 42 40 40 40 40 39 39 40 40 41 41 42 42 43 45 44 45 45 45 45 44 43 42 43 42 42 42 42 41 42 42 43 44 47 49 49 48
38 36 37 37 37 37 37 37 38 38 40 41 40 40 40 39 38 38 38 38 38 37 38 38 39 39 40 40 41 43 43 42 44 44 45 44 44 43 43 42 42 42 42 42 41 42 43 43 44 46 47 49
36 36 37 38 40 36 39 38 36 36 37 38 39 39 38 39 37 36 36 36 36 36 37 37 37 38 38 39 39 41 41 40 41 43 44 44 45 44 44 43 42 42 42 42 41 41 42 43 43 44 45 47
35 36 36 36 34 34 40 35 35 35 37 35 36 36 35 36 35 35 34 34 35 35 35 36 36 37 37 37 38 39 39 39 39 39 42 43 43 44 44 43 42 42 42 42 41 41 41 42 42 43 43 44
34 34 34 35 35 34 39 33 34 35 34 35 34 34 34 35 35 33 33 33 34 34 34 34 35 35 36 36 37 37 36 38 37 38 39 40 42 43 43 44 44 42 40 41 41 41 40 41 41 42 42 44
35 36 34 35 35 34 34 33 35 34 34 33 35 35 33 33 34 34 32 32 33 34 34 33 33 34 35 35 36 37 36 37 36 37 37 38 38 40 42 43 44 43 43 41 41 41 40 40 40 41 42 42
34 34 33 35 34 34 33 33 33 32 33 35 34 35 33 32 32 34 31 32 32 34 33 32 32 33 33 34 35 36 35 35 36 36 36 36 38 38 40 41 43 43 42 43 42 41 40 40 39 40 41 41
32 32 33 33 33 34 35 33 34 32 33 33 34 35 33 33 33 34 31 31 32 34 31 31 31 31 33 33 34 34 34 34 34 34 35 35 37 36 37 38 40 42 42 42 42 41 41 40 39 40 39 40
31 32 32 33 32 33 32 33 32 33 33 33 34 33 32 32 33 34 31 31 31 31 30 30 30 31 31 32 32 33 33 32 32 32 33 33 34 35 34 34 36 38 39 41 42 41 41 41 40 40 39 39
32 33 31 31 32 32 31 32 32 32 32 31 31 32 30 32 32 33 31 31 31 30 29 29 29 31 30 31 31 30 31 31 31 31 31 32 31 32 32 33 34 35 36 38 40 41 41 40 40 40 39 39
31 31 30 30 32 30 31 31 31 31 31 31 30 30 31 31 31 32 29 31 30 29 29 28 29 30 30 30 30 29 29 31 30 30 30 31 31 29 30 32 31 33 33 36 38 40 40 40 40 39 39 38
29 29 29 30 29 30 30 30 30 31 31 31 30 31 30 30 32 31 30 30 30 30 29 28 30 30 30 30 29 28 28 29 30 29 29 29 31 30 29 30 30 31 32 34 36 38 39 40 40 39 38 39
28 28 29 27 27 29 28 28 29 30 30 30 30 30 30 30 31 32 29 29 29 28 31 29 28 29 29 29 28 28 28 28 29 28 28 28 29 30 29 28 29 30 31 32 33 36 38 39 40 39 39 39
27 27 27 26 26 26 27 26 28 29 29 29 29 29 29 29 29 30 29 28 28 28 28 27 27 27 27 28 27 27 27 27 28 28 28 27 27 29 29 28 29 30 31 31 32 33 35 39 40 40 39 40
24 24 24 23 24 24 25 25 27 27 27 28 28 29 28 27 27 27 29 27 27 26 28 26 26 26 26 26 26 26 26 26 26 26 26 26 27 26 28 29 29 30 30 31 31 32 34 36 38 39 40 40
22 21 21 21 22 21 23 24 26 26 26 27 28 28 26 27 27 27 26 28 26 26 27 26 25 25 25 25 26 24 25 26 25 27 26 26 27 26 25 26 28 29 30 28 28 31 31 33 36 38 40 40
22 22 22 20 20 21 22 22 22 23 25 26 28 27 26 26 25 25 25 27 26 27 25 25 25 24 24 24 24 26 26 26 27 25 24 25 24 26 25 24 27 27 28 24 24 25 25 30 34 36 38 38
21 22 23 21 21 21 21 23 24 24 25 25 24 24 25 25 24 24 24 25 26 25 25 24 24 24 23 23 25 24 23 23 23 23 23 24 23 23 25 25 27 26 27 23 26 26 26 22 28 32 34 33
22 23 23 22 22 22 22 22 24 24 23 23 23 23 24 24 24 24 23 24 24 25 23 23 23 23 23 23 24 23 22 22 22 23 22 23 24 24 20 22 23 27 26 25 24 17 19 23 26 23 24 30
22 23 21 21 22 22 22 22 21 20 21 21 22 23 22 23 23 23 23 24 23 24 23 23 23 22 23 22 22 23 22 22 22 22 22 23 22 22 20 20 22 24 25 25 26 24 21 17 16 17 26 28
22 21 19 19 18 16 17 17 18 17 17 19 19 20 22 22 23 23 23 23 22 23 24 22 22 22 22 22 22 23 22 22 22 22 23 23 23 21 22 21 21 20 25 26 26 26 27 27 22 23 26 28
22 19 19 19 18 18 17 16 18 20 20 20 20 21 21 21 22 22 22 22 22 22 23 23 22 22 22 22 22 23 22 22 22 22 23 24 22 22 24 22 18 19 21 25 24 25 26 28 29 30 27 21
MSLP
1029.75 1029.39 1029.07 1028.75 1028.39 1028.03 1027.71 1027.35 1027.03 1026.75 1026.51 1026.35 1026.03 1025.63 1025.39 1025.27 1025.19 1024.95 1024.67 1024.39 1023.83 1023.47 1023.31 1023.11 1022.75 1022.35 1022.15 1021.99 1021.67 1021.31 1020.99 1020.67 1020.47 1020.23 1019.99 1019.67 1019.47 1019.11 1018.87 1018.51 1018.23 1018.27 1018.11 1018.03 1018.03 1017.79 1017.91 1017.95 1018.07 1018.07 1018.19 1018.35
1030.03 1029.63 1029.31 1029.07 1028.75 1028.43 1028.11 1027.75 1027.39 1027.11 1026.79 1026.43 1026.11 1025.83 1025.71 1025.55 1025.35 1025.07 1024.79 1024.43 1024.07 1023.79 1023.71 1023.55 1023.35 1022.95 1022.55 1022.23 1021.99 1021.79 1021.51 1021.07 1020.79 1020.59 1020.31 1019.91 1019.75 1019.63 1019.31 1019.03 1018.79 1018.63 1018.59 1018.47 1018.11 1018.07 1017.95 1017.99 1018.11 1018.11 1018.19 1018.27
1030.31 1029.87 1029.55 1029.31 1029.03 1028.71 1028.39 1028.07 1027.79 1027.51 1027.23 1026.95 1026.63 1026.27 1025.99 1025.71 1025.51 1025.27 1025.03 1024.71 1024.47 1024.11 1023.99 1023.95 1023.83 1023.27 1022.87 1022.59 1022.39 1022.19 1021.95 1021.51 1021.23 1020.99 1020.55 1020.23 1020.15 1020.03 1019.79 1019.63 1019.39 1019.15 1018.99 1018.87 1018.91 1018.63 1018.31 1018.23 1018.15 1018.19 1018.23 1018.31
1030.55 1030.19 1029.79 1029.59 1029.27 1028.99 1028.67 1028.43 1028.11 1027.87 1027.63 1027.43 1027.19 1026.83 1026.43 1026.03 1025.71 1025.51 1025.35 1024.99 1024.83 1024.59 1024.47 1024.31 1024.03 1023.67 1023.31 1022.99 1022.71 1022.51 1022.31 1021.95 1021.59 1021.35 1020.95 1020.71 1020.47 1020.39 1020.31 1020.23 1019.95 1019.67 1019.35 1019.27 1019.15 1018.79 1018.63 1018.55 1018.39 1018.35 1018.39 1018.35
1030.75 1030.43 1030.07 1029.91 1029.59 1029.23 1028.95 1028.71 1028.43 1028.23 1027.99 1027.75 1027.55 1027.15 1026.75 1026.43 1026.19 1025.99 1025.71 1025.47 1025.27 1025.07 1024.91 1024.67 1024.27 1023.91 1023.59 1023.31 1023.07 1022.87 1022.71 1022.39 1022.07 1021.71 1021.35 1021.11 1020.83 1020.75 1020.87 1020.79 1020.47 1020.11 1019.75 1019.71 1019.63 1019.43 1019.11 1018.67 1018.71 1018.63 1018.59 1018.51
1030.87 1030.59 1030.27 1030.07 1029.83 1029.55 1029.19 1028.95 1028.71 1028.59 1028.39 1028.19 1027.99 1027.59 1027.19 1026.83 1026.59 1026.35 1026.11 1025.87 1025.67 1025.51 1025.27 1024.99 1024.67 1024.31 1023.91 1023.63 1023.39 1023.15 1023.19 1022.79 1022.39 1022.07 1021.79 1021.55 1021.31 1021.19 1021.31 1021.27 1020.91 1020.47 1020.19 1020.07 1020.15 1020.07 1019.63 1019.27 1019.11 1018.99 1018.91 1018.79
1030.95 1030.71 1030.47 1030.23 1029.95 1029.67 1029.43 1029.19 1028.95 1028.75 1028.55 1028.43 1028.31 1028.03 1027.67 1027.31 1027.03 1026.75 1026.51 1026.23 1026.03 1025.83 1025.55 1025.27 1024.95 1024.67 1024.31 1023.95 1023.71 1023.47 1023.35 1023.03 1022.75 1022.51 1022.35 1022.07 1021.83 1021.71 1021.63 1021.63 1021.35 1020.99 1020.63 1020.47 1020.43 1020.47 1020.11 1019.83 1019.59 1019.39 1019.27 1019.15
1030.99 1030.75 1030.55 1030.39 1030.15 1029.91 1029.67 1029.39 1029.19 1028.95 1028.75 1028.51 1028.43 1028.31 1028.07 1027.79 1027.47 1027.19 1026.91 1026.63 1026.35 1026.07 1025.75 1025.47 1025.23 1024.99 1024.75 1024.43 1024.11 1023.71 1023.47 1023.23 1022.99 1022.83 1022.75 1022.47 1022.15 1022.07 1021.95 1021.87 1021.63 1021.35 1021.03 1020.83 1020.87 1020.91 1020.83 1020.27 1019.87 1019.79 1019.59 1019.47
1030.99 1030.71 1030.63 1030.43 1030.23 1030.03 1029.87 1029.63 1029.39 1029.15 1028.95 1028.75 1028.55 1028.35 1028.27 1028.11 1027.87 1027.59 1027.31 1026.99 1026.71 1026.43 1026.11 1025.79 1025.51 1025.23 1024.99 1024.79 1024.55 1024.23 1023.95 1023.63 1023.43 1023.19 1023.03 1022.79 1022.43 1022.19 1021.99 1021.87 1021.67 1021.51 1021.35 1021.19 1021.15 1021.19 1021.19 1020.75 1020.19 1020.03 1019.99 1019.83
1030.91 1030.75 1030.63 1030.43 1030.23 1030.07 1029.99 1029.79 1029.63 1029.43 1029.15 1028.91 1028.75 1028.59 1028.39 1028.11 1028.03 1027.87 1027.59 1027.27 1026.99 1026.75 1026.43 1026.15 1025.91 1025.71 1025.39 1025.03 1024.75 1024.39 1024.19 1023.99 1023.67 1023.39 1023.15 1022.83 1022.43 1022.19 1022.07 1021.95 1021.71 1021.59 1021.59 1021.51 1021.47 1021.47 1021.19 1021.11 1020.71 1020.43 1020.35 1020.11
1030.95 1030.75 1030.63 1030.43 1030.23 1030.07 1029.99 1029.79 1029.71 1029.55 1029.35 1029.15 1028.95 1028.79 1028.59 1028.39 1028.19 1027.99 1027.87 1027.59 1027.35 1027.07 1026.83 1026.59 1026.39 1026.11 1025.79 1025.43 1025.11 1024.71 1024.35 1024.07 1023.79 1023.51 1023.15 1022.79 1022.51 1022.31 1022.19 1022.07 1021.87 1021.75 1021.75 1021.79 1021.63 1021.31 1021.19 1021.23 1021.03 1020.83 1020.67 1020.43
1030.91 1030.71 1030.55 1030.39 1030.15 1030.11 1029.91 1029.75 1029.71 1029.63 1029.47 1029.27 1029.11 1028.95 1028.83 1028.67 1028.51 1028.27 1028.03 1027.87 1027.67 1027.47 1027.23 1026.99 1026.71 1026.43 1026.11 1025.79 1025.47 1025.11 1024.83 1024.43 1024.07 1023.71 1023.35 1022.95 1022.63 1022.39 1022.23 1022.15 1022.03 1021.91 1021.79 1021.75 1021.79 1021.75 1021.67 1021.51 1021.19 1021.07 1021.07 1020.83
1030.79 1030.63 1030.51 1030.35 1030.19 1030.03 1029.83 1029.71 1029.67 1029.59 1029.43 1029.31 1029.15 1029.03 1028.91 1028.75 1028.59 1028.39 1028.23 1028.03 1027.83 1027.63 1027.47 1027.19 1026.95 1026.63 1026.35 1026.07 1025.79 1025.39 1025.11 1024.87 1024.51 1024.15 1023.75 1023.35 1022.99 1022.71 1022.43 1022.23 1022.07 1021.95 1021.87 1021.83 1021.87 1021.99 1021.95 1021.67 1021.27 1021.15 1021.15 1021.11
1030.87 1030.71 1030.51 1030.31 1030.19 1029.99 1029.75 1029.67 1029.59 1029.47 1029.35 1029.23 1029.11 1028.99 1028.87 1028.75 1028.63 1028.51 1028.39 1028.15 1027.91 1027.71 1027.51 1027.35 1027.11 1026.83 1026.55 1026.35 1026.03 1025.71 1025.47 1025.23 1024.99 1024.63 1024.15 1023.79 1023.39 1023.03 1022.75 1022.47 1022.19 1021.99 1021.87 1021.79 1021.83 1021.95 1021.95 1021.63 1021.35 1021.27 1021.31 1021.19
1031.23 1031.03 1030.91 1030.71 1030.47 1030.19 1029.83 1029.59 1029.47 1029.35 1029.27 1029.19 1029.07 1028.91 1028.75 1028.63 1028.51 1028.39 1028.35 1028.19 1027.99 1027.79 1027.63 1027.47 1027.31 1027.07 1026.83 1026.55 1026.31 1026.07 1025.91 1025.63 1025.39 1025.07 1024.75 1024.35 1023.95 1023.47 1023.07 1022.71 1022.39 1022.15 1021.95 1021.83 1021.75 1021.63 1021.39 1021.31 1021.31 1021.35 1021.35 1021.31
1031.35 1031.23 1031.03 1030.79 1030.63 1030.31 1029.91 1029.59 1029.39 1029.27 1029.19 1029.07 1028.95 1028.83 1028.67 1028.55 1028.39 1028.27 1028.27 1028.15 1027.99 1027.83 1027.67 1027.59 1027.43 1027.27 1027.03 1026.83 1026.63 1026.47 1026.31 1026.07 1025.75 1025.43 1025.07 1024.67 1024.27 1023.95 1023.51 1023.11 1022.71 1022.35 1022.19 1021.99 1021.79 1021.63 1021.31 1021.23 1021.43 1021.51 1021.47 1021.39
1031.51 1031.27 1031.11 1030.91 1030.75 1030.43 1030.07 1029.83 1029.55 1029.27 1029.07 1028.95 1028.83 1028.75 1028.63 1028.47 1028.31 1028.23 1028.23 1028.07 1027.91 1027.79 1027.71 1027.59 1027.47 1027.31 1027.15 1026.99 1026.87 1026.71 1026.55 1026.31 1025.99 1025.63 1025.27 1024.95 1024.59 1024.27 1023.87 1023.51 1023.11 1022.71 1022.43 1022.15 1021.87 1021.67 1021.43 1021.27 1021.35 1021.55 1021.59 1021.43
1031.59 1031.47 1031.27 1031.11 1030.87 1030.55 1030.31 1030.15 1030.03 1029.71 1029.23 1028.91 1028.71 1028.63 1028.55 1028.39 1028.23 1028.15 1028.11 1027.95 1027.83 1027.71 1027.67 1027.55 1027.47 1027.35 1027.19 1027.07 1026.95 1026.83 1026.63 1026.47 1026.31 1026.07 1025.79 1025.43 1025.11 1024.83 1024.55 1024.19 1023.75 1023.27 1022.75 1022.35 1022.03 1021.79 1021.55 1021.55 1021.55 1021.51 1021.47 1021.31
1031.75 1031.59 1031.47 1031.27 1030.99 1030.71 1030.47 1030.27 1030.19 1029.95 1029.59 1029.15 1028.83 1028.67 1028.51 1028.35 1028.19 1028.19 1028.03 1027.83 1027.71 1027.67 1027.59 1027.47 1027.43 1027.31 1027.27 1027.15 1027.07 1026.91 1026.79 1026.63 1026.47 1026.35 1026.19 1025.91 1025.67 1025.31 1024.99 1024.63 1024.27 1023.91 1023.43 1022.87 1022.39 1022.03 1021.75 1021.71 1021.63 1021.55 1021.43 1021.31
1031.83 1031.71 1031.55 1031.39 1031.19 1030.91 1030.67 1030.51 1030.31 1030.11 1029.91 1029.59 1029.19 1028.87 1028.63 1028.51 1028.39 1028.23 1028.03 1027.87 1027.79 1027.75 1027.55 1027.47 1027.43 1027.35 1027.35 1027.31 1027.23 1027.07 1026.91 1026.71 1026.59 1026.47 1026.35 1026.23 1026.07 1025.75 1025.35 1024.91 1024.59 1024.27 1023.87 1023.27 1022.75 1022.31 1021.99 1021.75 1021.59 1021.47 1021.27 1021.23
1031.91 1031.79 1031.63 1031.51 1031.39 1031.11 1030.87 1030.75 1030.51 1030.23 1030.07 1029.83 1029.51 1029.31 1029.15 1028.91 1028.67 1028.43 1028.31 1028.23 1028.03 1027.87 1027.67 1027.63 1027.59 1027.51 1027.47 1027.39 1027.35 1027.23 1027.07 1026.91 1026.75 1026.63 1026.51 1026.35 1026.19 1026.15 1025.79 1025.39 1024.91 1024.43 1024.19 1023.63 1022.99 1022.39 1022.03 1021.75 1021.47 1021.27 1021.11 1020.91
1032.03 1031.91 1031.71 1031.63 1031.51 1031.27 1031.07 1030.91 1030.71 1030.43 1030.19 1029.99 1029.79 1029.59 1029.43 1029.27 1029.11 1028.87 1028.75 1028.51 1028.27 1028.03 1027.83 1027.79 1027.71 1027.63 1027.51 1027.43 1027.35 1027.27 1027.15 1027.03 1026.79 1026.71 1026.59 1026.43 1026.27 1026.15 1026.03 1025.67 1025.27 1024.71 1024.19 1023.87 1023.31 1022.63 1022.07 1021.63 1021.35 1021.11 1020.83 1020.63
1032.07 1031.99 1031.79 1031.67 1031.47 1031.31 1031.15 1030.99 1030.79 1030.55 1030.31 1030.11 1029.91 1029.71 1029.55 1029.47 1029.35 1029.19 1028.95 1028.75 1028.51 1028.27 1028.03 1027.91 1027.79 1027.71 1027.63 1027.51 1027.35 1027.27 1027.11 1026.99 1026.83 1026.71 1026.59 1026.51 1026.23 1026.11 1026.15 1025.91 1025.55 1025.15 1024.51 1023.91 1023.51 1022.95 1022.27 1021.59 1021.15 1020.87 1020.59 1020.35
1032.19 1032.07 1031.91 1031.83 1031.59 1031.35 1031.11 1030.99 1030.75 1030.55 1030.47 1030.23 1029.99 1029.75 1029.63 1029.51 1029.43 1029.39 1029.19 1028.91 1028.71 1028.47 1028.19 1028.03 1027.91 1027.83 1027.75 1027.59 1027.47 1027.31 1027.19 1027.03 1026.95 1026.83 1026.59 1026.51 1026.27 1026.11 1025.95 1025.79 1025.55 1025.15 1024.71 1023.99 1023.43 1022.87 1022.23 1021.75 1021.19 1020.71 1020.39 1020.07
1032.23 1032.19 1031.99 1031.87 1031.75 1031.63 1031.47 1031.15 1030.75 1030.59 1030.43 1030.23 1029.95 1029.71 1029.67 1029.63 1029.63 1029.51 1029.31 1029.03 1028.91 1028.67 1028.39 1028.19 1028.03 1027.95 1027.83 1027.71 1027.59 1027.51 1027.39 1027.19 1027.07 1026.87 1026.87 1026.71 1026.51 1026.35 1026.11 1025.91 1025.55 1025.23 1024.83 1024.43 1023.43 1022.67 1022.03 1021.51 1021.03 1020.55 1020.11 1019.79
1032.27 1032.23 1032.07 1031.99 1031.79 1031.63 1031.39 1031.19 1030.91 1030.59 1030.31 1030.03 1029.91 1029.87 1029.79 1029.71 1029.67 1029.55 1029.39 1029.15 1028.91 1028.71 1028.51 1028.35 1028.19 1028.03 1027.91 1027.79 1027.71 1027.55 1027.47 1027.31 1027.15 1026.99 1026.95 1026.79 1026.71 1026.55 1026.43 1026.19 1025.79 1025.55 1025.03 1024.91 1024.67 1023.91 1022.79 1021.19 1020.43 1019.91 1019.51 1019.47
1032.31 1032.15 1031.91 1031.83 1031.71 1031.55 1031.35 1031.07 1030.83 1030.51 1030.15 1030.07 1030.11 1029.95 1029.79 1029.67 1029.55 1029.43 1029.27 1029.11 1028.95 1028.75 1028.55 1028.43 1028.27 1028.11 1027.99 1027.91 1027.75 1027.67 1027.51 1027.39 1027.27 1027.11 1026.99 1026.87 1026.91 1026.59 1026.51 1026.39 1026.03 1025.91 1025.83 1025.83 1025.07 1024.63 1023.55 1023.11 1020.59 1019.51 1019.39 1019.19
1032.19 1031.99 1031.75 1031.71 1031.63 1031.47 1031.31 1031.03 1030.59 1030.35 1030.23 1030.15 1030.03 1029.87 1029.75 1029.71 1029.55 1029.43 1029.27 1029.11 1028.91 1028.71 1028.59 1028.47 1028.35 1028.19 1028.11 1028.03 1027.91 1027.75 1027.59 1027.43 1027.31 1027.07 1026.99 1026.87 1026.83 1026.79 1026.71 1026.51 1026.27 1026.11 1025.91 1025.99 1025.67 1026.03 1025.03 1023.47 1022.71 1021.83 1020.67 1020.19
1032.03 1031.79 1031.79 1031.71 1031.55 1031.35 1031.11 1030.83 1030.55 1030.51 1030.39 1030.31 1030.19 1029.99 1029.83 1029.67 1029.55 1029.35 1029.19 1029.03 1028.87 1028.71 1028.63 1028.51 1028.35 1028.23 1028.11 1027.99 1027.87 1027.71 1027.59 1027.39 1027.19 1027.03 1026.95 1026.87 1026.83 1026.75 1026.83 1026.43 1026.39 1026.03 1026.07 1025.95 1025.95 1025.99 1025.15 1025.55 1023.99 1023.55 1021.63 1021.27
1031.87 1031.83 1031.91 1031.79 1031.67 1031.43 1031.19 1030.91 1030.67 1030.67 1030.59 1030.35 1030.27 1030.07 1029.83 1029.71 1029.59 1029.43 1029.19 1029.03 1028.87 1028.75 1028.55 1028.39 1028.23 1028.11 1028.03 1027.91 1027.79 1027.67 1027.47 1027.23 1027.07 1026.99 1026.83 1026.71 1026.55 1026.51 1026.55 1026.51 1026.11 1026.31 1025.87 1025.83 1025.67 1025.63 1025.51 1025.03 1024.51 1023.55 1022.95 1022.59
1031.79 1031.91 1031.83 1031.79 1031.71 1031.55 1031.31 1031.03 1030.67 1030.55 1030.43 1030.31 1030.11 1029.95 1029.79 1029.63 1029.47 1029.31 1029.11 1028.91 1028.79 1028.67 1028.51 1028.31 1028.15 1028.03 1027.99 1027.91 1027.83 1027.63 1027.43 1027.27 1027.03 1026.79 1026.63 1026.43 1026.47 1026.47 1026.19 1026.23 1026.43 1026.23 1025.91 1025.47 1025.59 1025.51 1025.23 1024.87 1024.39 1023.95 1023.63 1023.71
Wind_Speed
23 23 25 26 26 25 25 25 25 24 25 24 22 23 23 23 22 22 22 22 24 24 25 25 25 24 23 23 23 22 22 22 21 21 21 22 23 24 24 22 21 24 13 13 11 11 3 5 4 4 2 1
20 21 23 24 24 24 24 25 25 24 25 25 25 23 23 22 20 21 22 22 22 23 23 25 24 23 22 22 22 23 22 22 22 22 21 22 23 24 24 23 22 22 23 22 11 7 8 7 6 4 2 0
10 20 21 22 23 23 23 24 25 25 24 24 24 23 23 21 20 20 21 22 22 22 22 22 22 24 23 24 23 22 22 22 22 22 22 23 22 22 25 24 23 21 24 22 26 9 8 6 6 4 1 1
8 13 20 20 21 21 21 22 23 25 24 23 23 23 21 20 16 15 14 22 17 21 21 21 20 22 21 22 23 22 22 22 21 22 22 22 22 22 22 22 22 22 22 23 24 26 15 7 4 1 1 1
9 10 18 13 16 20 20 20 21 22 21 20 18 20 18 15 11 10 10 11 12 17 14 19 21 21 20 20 21 22 22 22 21 22 22 22 21 22 21 19 18 22 21 24 23 23 24 8 4 2 0 2
7 6 12 11 10 9 14 13 15 12 12 14 12 18 13 10 9 9 9 9 12 9 13 13 21 20 21 20 20 20 20 21 19 21 22 21 21 20 20 19 10 10 16 20 23 22 21 11 6 5 3 2
6 6 7 9 10 8 13 10 10 10 11 9 11 11 11 10 9 9 8 10 12 11 15 14 19 20 20 21 21 21 19 19 19 18 19 20 19 18 18 11 8 8 7 9 18 18 13 9 8 7 6 3
5 4 5 6 7 8 9 9 9 10 10 9 10 9 9 9 10 9 8 12 16 14 10 10 15 19 18 18 18 22 13 16 17 17 14 16 16 10 6 7 7 8 7 8 8 9 10 9 9 8 7 5
5 5 5 5 5 5 7 7 9 9 9 9 10 10 9 9 9 8 8 8 8 9 9 9 10 10 10 10 10 16 10 9 9 9 8 6 7 6 7 7 7 7 8 7 7 7 8 10 9 9 8 6
5 5 5 5 5 5 5 5 7 7 8 9 9 8 9 9 9 8 8 8 9 9 9 10 9 10 10 10 10 11 9 9 9 9 7 8 7 6 5 6 6 6 7 8 7 5 7 8 9 9 8 8
5 6 4 5 5 4 5 4 5 5 6 8 9 8 8 8 9 7 7 8 9 10 9 9 9 9 9 10 10 10 10 10 10 9 9 8 8 7 6 5 4 5 6 6 7 7 7 7 8 9 9 8
6 5 5 5 4 4 5 4 4 5 5 5 7 7 6 6 6 7 7 7 8 8 8 9 9 8 9 9 9 9 10 10 10 10 10 9 10 9 8 7 5 3 4 5 5 7 6 6 6 7 8 9
6 6 5 5 5 5 5 3 4 4 4 5 4 5 5 5 6 5 6 7 6 6 8 8 9 8 8 8 9 9 9 10 10 10 10 10 10 9 9 8 7 5 3 3 3 5 6 5 6 6 7 8
6 6 6 6 6 6 4 4 4 3 5 5 5 5 4 4 4 4 5 5 6 7 7 7 7 8 8 9 8 9 9 10 9 10 10 10 10 10 10 9 8 8 6 4 2 2 4 5 5 5 6 7
7 8 7 8 8 7 6 5 4 3 4 5 5 5 3 4 4 3 4 5 5 6 7 6 7 7 7 8 9 9 9 9 10 9 9 10 10 10 10 9 8 8 8 7 4 3 4 6 5 5 5 5
7 6 6 7 8 9 8 5 5 4 4 5 5 4 3 3 3 2 3 3 5 6 6 6 6 6 7 7 8 8 9 10 10 9 9 10 10 10 9 10 9 8 7 8 7 5 4 4 5 6 5 5
5 5 6 6 7 8 8 7 6 6 5 5 5 5 3 3 3 1 2 3 4 5 4 5 4 5 5 6 6 7 9 10 9 10 11 11 11 11 10 11 11 10 8 7 8 7 6 3 4 5 5 5
6 6 6 6 6 7 8 8 8 9 8 6 5 5 4 4 3 0 2 2 4 3 4 3 4 4 5 4 5 6 7 8 8 9 10 11 11 11 11 11 11 11 11 9 8 7 7 4 3 4 5 5
6 6 6 6 7 7 7 7 7 9 9 8 6 5 6 5 3 0 1 2 3 4 3 3 4 5 4 5 4 5 5 6 7 7 9 9 11 10 10 10 10 10 11 12 11 9 7 6 6 3 4 5
5 6 5 5 7 6 7 7 7 8 9 8 7 7 6 5 4 1 3 4 3 5 4 3 4 5 5 5 6 6 6 6 7 7 8 8 9 11 11 11 11 9 10 12 12 10 8 7 6 6 4 4
5 6 5 6 7 6 7 7 8 7 8 8 9 9 9 7 6 5 6 5 5 5 4 5 6 5 6 6 7 6 6 6 6 6 7 8 8 8 10 10 12 10 9 11 12 12 11 8 8 6 6 4
5 5 5 5 5 6 6 7 7 7 7 7 7 7 8 9 8 7 6 6 5 5 5 5 5 5 7 6 6 6 6 6 5 5 6 8 8 8 8 9 10 12 11 9 10 12 13 11 8 7 7 6
4 5 4 4 6 5 5 5 5 6 7 6 7 6 6 5 5 6 6 6 6 5 5 5 5 5 5 5 5 6 6 6 6 6 6 7 9 7 7 7 8 9 10 10 10 11 12 11 10 8 7 6
4 4 5 6 6 7 7 7 5 5 5 6 6 6 6 4 4 5 6 5 6 5 5 4 5 5 5 5 5 6 7 7 6 7 8 7 8 10 8 7 8 8 9 11 11 10 10 9 10 10 8 7
4 5 4 3 4 5 5 7 8 6 6 5 5 6 3 4 6 7 6 7 6 6 6 5 5 5 5 5 6 5 6 7 7 6 6 6 5 8 9 7 7 8 8 9 10 10 10 10 8 9 9 8
4 4 4 4 5 4 5 5 6 7 6 6 5 6 4 6 5 6 6 6 7 6 6 6 5 5 5 5 5 5 5 5 5 6 5 6 6 4 7 7 7 8 9 7 8 11 13 13 9 7 7 6
5 4 3 3 4 5 5 4 5 5 6 4 6 6 6 6 6 6 6 6 6 6 6 5 5 5 5 5 5 6 5 4 4 4 5 6 6 8 4 5 5 7 6 7 9 8 8 7 11 6 3 2
5 6 4 3 4 4 5 7 8 4 4 6 7 7 6 6 6 7 6 6 5 5 4 5 5 5 5 5 4 5 5 5 5 4 4 6 6 5 8 5 5 5 5 4 8 7 2 6 7 9 4 8
5 5 3 3 4 4 5 5 3 3 5 4 6 7 6 7 7 7 7 6 5 4 5 4 5 5 5 5 4 5 5 5 5 3 3 5 5 4 4 8 6 5 4 5 3 6 6 5 3 3 6 12
4 3 4 5 6 7 7 7 5 5 7 7 7 7 5 6 6 6 6 5 4 4 6 6 5 4 4 5 5 5 5 5 5 5 6 5 5 3 4 6 7 7 5 4 7 4 6 7 7 10 10 10
3 2 3 4 5 6 7 8 6 5 5 6 6 5 6 7 6 6 6 5 4 5 6 5 5 4 4 5 5 6 6 6 6 6 5 5 3 5 5 3 6 7 7 7 3 6 7 8 9 10 9 6
Wind_Direction
6 6 8 6 5 4 5 6 7 8 9 11 10 14 15 17 17 14 13 13 12 17 14 12 9 10 14 12 12 13 14 11 12 14 15 16 15 13 10 13 21 21 352 241 216 216 209 211 221 223 141 123
2 3 5 5 4 3 3 3 4 5 7 8 7 8 12 13 15 15 12 13 12 16 14 12 7 7 8 12 15 12 10 12 12 12 13 15 15 12 10 12 16 15 14 7 252 215 212 209 224 227 161 118
354 359 4 3 3 3 2 1 2 2 2 4 4 4 6 8 13 13 11 12 10 11 13 11 5 4 7 10 11 12 9 8 12 13 13 16 15 12 11 10 11 11 14 9 6 305 233 226 208 209 145 170
346 351 0 1 360 1 1 360 0 360 359 0 359 1 1 4 7 7 6 8 8 9 9 6 5 6 5 7 8 8 9 7 9 11 15 15 15 15 11 9 9 10 9 11 1 3 346 256 254 232 124 236
341 347 355 354 352 356 358 358 359 359 357 356 354 355 353 358 1 3 2 2 3 4 5 2 3 3 4 7 7 8 7 4 6 10 12 15 15 14 11 6 10 11 11 8 4 358 356 332 272 280 323 301
343 342 350 349 346 347 353 352 356 358 354 354 353 352 349 355 356 359 359 359 1 1 2 359 1 1 2 4 4 8 7 3 0 8 11 11 16 14 11 3 6 3 11 8 5 356 357 358 352 336 332 316
341 343 345 346 345 344 349 348 353 352 353 354 354 350 349 353 351 352 354 359 2 2 0 1 1 0 1 359 0 1 1 1 358 5 7 9 12 16 11 9 356 4 0 11 6 356 355 352 352 341 325 324
333 330 343 339 342 347 346 344 351 350 350 351 354 352 354 352 350 348 352 358 2 3 359 358 358 358 357 356 356 357 356 357 353 357 357 2 10 8 14 5 4 358 3 13 8 3 349 344 351 351 336 319
317 325 334 330 331 346 344 340 348 347 346 350 351 351 355 352 352 351 354 358 0 1 359 358 357 354 352 352 350 355 353 352 353 350 343 347 359 1 5 6 5 3 2 7 8 2 354 345 344 359 349 342
305 325 322 328 326 341 339 337 347 343 344 345 350 350 350 353 353 357 358 359 1 1 358 359 359 353 349 347 349 352 353 354 350 347 344 348 346 358 349 1 359 10 5 356 3 354 359 354 348 357 353 350
300 306 299 308 305 334 321 334 342 335 340 340 342 347 351 352 351 354 359 2 1 1 359 358 353 351 348 347 349 349 349 350 349 347 345 343 348 345 348 345 1 6 7 360 350 352 358 355 354 353 348 350
294 291 301 297 310 307 293 334 323 318 323 333 336 339 343 350 348 348 356 0 2 359 358 355 349 346 349 345 349 348 353 346 347 345 346 343 347 345 347 343 344 358 8 2 359 350 345 349 352 357 348 342
283 287 294 292 291 288 287 310 300 290 305 317 314 328 334 344 348 349 350 357 358 357 359 350 349 347 346 349 347 348 349 351 343 345 342 344 341 343 342 342 341 342 350 6 2 346 336 339 354 354 352 343
304 298 296 293 291 279 283 283 274 289 299 291 306 305 321 333 338 345 348 348 351 2 352 352 347 348 346 348 346 351 348 347 347 340 340 341 340 340 340 341 339 341 332 335 349 334 331 339 351 352 347 340
339 330 325 325 314 296 279 273 277 284 291 293 288 283 308 319 332 344 348 354 351 355 350 349 351 347 347 347 351 350 351 348 348 343 345 340 339 339 338 338 337 340 338 329 323 329 355 342 347 341 339 333
354 346 337 336 335 315 286 278 271 283 291 286 285 278 283 293 318 340 345 359 355 349 346 347 347 347 351 351 350 358 354 354 347 348 344 344 343 340 338 336 338 337 338 334 322 325 346 351 341 329 332 327
339 333 338 339 338 341 331 308 304 296 282 281 280 280 269 277 299 356 343 354 347 340 339 339 344 350 351 351 3 357 357 355 353 352 350 349 348 344 344 343 340 337 335 331 331 327 314 335 330 313 317 315
340 347 343 348 347 350 353 347 333 309 295 283 285 286 271 278 287 18 304 356 334 324 334 336 343 342 348 353 1 358 359 359 355 353 353 348 350 346 345 341 339 339 335 333 329 330 320 305 285 301 314 313
5 8 356 358 354 349 354 349 348 340 319 296 299 298 279 280 294 212 275 296 307 317 315 342 339 347 339 355 355 2 352 360 351 355 354 348 348 341 340 336 338 337 333 330 329 326 327 315 288 272 286 306
14 6 358 2 356 349 353 352 349 347 346 330 317 323 311 319 324 280 279 310 328 318 311 333 349 334 359 351 357 352 352 359 353 352 349 349 347 340 336 335 332 334 330 328 324 323 317 312 299 280 269 281
19 5 360 5 354 351 356 358 345 347 350 350 358 358 348 339 330 330 337 351 348 347 342 1 352 352 1 355 356 351 350 354 348 352 344 343 343 340 329 331 326 327 328 324 320 319 316 310 307 293 275 261
13 1 357 4 348 352 353 353 343 338 347 347 354 352 349 343 348 355 1 5 6 14 12 15 9 360 355 352 346 348 349 341 339 346 345 336 338 337 333 327 327 323 322 320 317 315 314 312 303 296 282 266
14 359 355 352 348 344 343 346 334 339 337 342 340 342 335 343 354 359 355 359 1 3 5 7 1 357 345 343 337 343 338 339 337 340 336 335 329 335 328 316 317 314 313 316 311 309 307 304 301 293 282 272
16 358 354 356 340 345 342 336 332 334 327 327 324 323 328 334 0 357 349 355 349 354 356 1 347 349 335 334 343 339 341 337 339 332 335 335 332 332 328 324 314 317 319 313 312 307 301 294 296 296 288 278
16 354 337 345 340 332 326 325 327 324 319 309 302 312 330 354 13 358 352 360 353 353 354 354 348 350 339 346 351 345 340 328 329 333 335 328 337 333 328 328 322 326 322 323 321 320 310 304 288 284 281 276
10 345 328 325 317 320 313 320 317 316 310 303 333 341 8 358 359 353 349 347 351 348 353 352 353 348 347 357 341 342 331 330 336 339 346 344 343 340 328 324 333 330 340 344 335 331 324 315 309 255 258 256
352 325 314 324 314 319 315 290 292 286 295 349 351 334 347 345 345 343 341 343 341 343 339 342 346 341 348 345 336 336 329 328 340 330 341 347 340 329 328 318 329 337 354 319 327 309 303 319 328 329 317 307
332 312 319 314 304 306 309 314 303 308 342 344 340 334 337 334 336 334 331 332 330 334 335 347 348 345 343 332 332 319 319 321 317 318 336 334 327 322 322 326 319 331 334 344 335 345 300 296 336 311 327 332
314 317 340 313 308 306 307 297 290 331 325 332 327 323 328 330 333 329 328 327 332 339 349 343 338 335 324 328 316 315 312 309 304 301 308 301 299 310 304 314 312 317 335 320 307 292 322 347 331 245 297 341
326 345 335 333 338 332 331 319 322 333 328 328 326 320 317 317 324 320 319 319 332 343 337 332 326 319 324 323 323 316 304 303 306 302 290 269 260 288 305 286 306 312 311 305 304 289 265 265 289 307 319 313
338 346 326 334 327 321 309 310 308 317 312 312 309 310 317 319 317 312 315 321 330 333 323 319 315 328 335 331 332 328 323 312 297 286 281 277 290 274 277 323 302 301 304 308 310 296 284 285 283 276 282 283